Location: Georgenberg
(48.1500°N, 16.2500°E)
Time: 09:12:50
(UTC+01:00)

N. Korean satellite - Visible Passes

Search period start: 28 November 2022 00:00
Search period end: 08 December 2022 00:00
Orbit: 422 x 454 km, 97.3° (Epoch: 27 November)

Date Brightness Start Highest point End Pass type
(mag) Time Alt. Az. Time Alt. Az. Time Alt. Az.
28 Nov 6.5 05:16:27 10° NNE 05:19:54 75° ESE 05:23:18 10° S visible
28 Nov 9.7 17:23:06 10° SW 17:25:06 15° W 17:27:08 10° NW visible
29 Nov 8.8 04:38:15 10° NE 04:41:06 24° E 04:43:57 10° SSE visible
29 Nov 7.5 06:10:45 10° NNW 06:13:34 24° WNW 06:16:22 10° WSW visible
29 Nov 7.9 16:42:59 10° S 16:46:11 41° W 16:49:27 10° NNW visible
30 Nov 6.3 05:31:37 10° N 05:35:03 70° WNW 05:38:26 10° SSW visible
01 Dec 8.0 04:53:05 10° NNE 04:56:17 36° E 04:59:27 10° SSE visible
01 Dec 8.0 06:26:16 10° NNW 06:28:33 17° WNW 06:30:49 10° WSW visible
01 Dec 8.8 16:58:23 10° SSW 17:01:19 27° W 17:04:18 10° NW visible
02 Dec 9.7 04:15:34 10° ENE 04:17:17 13° E 04:18:59 10° ESE visible
02 Dec 6.7 05:46:46 10° N 05:50:03 44° WNW 05:53:18 10° SW visible
03 Dec 7.0 05:07:55 10° NNE 05:11:19 56° E 05:14:39 10° S visible
03 Dec 8.3 06:42:00 10° NW 06:43:22 12° WNW 06:44:44 10° W visible
03 Dec 9.5 17:13:54 10° SW 17:16:22 19° W 17:18:52 10° NW visible
04 Dec 9.2 04:29:48 10° NE 04:32:19 19° E 04:34:50 10° SE visible
04 Dec 7.2 06:01:52 10° N 06:04:53 30° WNW 06:07:53 10° SW visible
04 Dec 7.3 16:34:02 10° S 16:37:22 55° W 16:40:44 10° NNW visible
05 Dec 6.3 05:22:45 10° NNE 05:26:11 89° ESE 05:29:33 10° SSW visible
05 Dec 9.8 17:29:40 10° WSW 17:31:20 13° W 17:32:59 10° WNW visible
06 Dec 8.5 04:44:14 10° NE 04:47:13 28° E 04:50:10 10° SSE visible
06 Dec 7.7 06:16:58 10° NNW 06:19:35 21° WNW 06:22:11 10° WSW visible
06 Dec 8.3 16:49:02 10° SSW 16:52:11 35° W 16:55:22 10° NNW visible
07 Dec 10.0 04:07:42 10° E 04:08:00 10° E 04:08:18 10° E visible
07 Dec 6.3 05:37:32 10° N 05:40:54 59° WNW 05:44:12 10° SSW visible
